Weather Service Report


466 
ASUS44 KMEG 011100
RWRTN 
TENNESSEE HOURLY STATE WEATHER ROUNDUP
NATIONAL WEATHER SERVICE MEMPHIS TN
600 AM CDT FRI AUG 01 2014

TNZ002-004-019-021-049-052-054-088>092-011200-
WEST TENNESSEE
  
CITY           SKY/WX    TMP DP  RH WIND       PRES   REMARKS
MEMPHIS INTL   LGT RAIN  72  66  81 NE3       30.06R                  
NWS MEMPHIS      N/A     70 N/A N/A MISG        N/A                   
JACKSON        CLOUDY    67  65  93 CALM      30.06S                  
DYERSBURG      MOCLDY    70  57  64 NE5       30.08S                  
UNION CITY     CLOUDY    66  64  94 NE3       30.07R                  
PARIS          MOCLDY    64  61  88 N5        30.08S                  
LEXINGTON      MOCLDY    64  63  94 NE5       30.06S                  
SAVANNAH       MOCLDY    63  63 100 CALM      30.07R                  
$$

TNZ008-025-027-028-033-062-065-066-011200-
NORTH MIDDLE TENNESSEE
  
CITY           SKY/WX    TMP DP  RH WIND       PRES   REMARKS
NASHVILLE      PTCLDY    63  61  93 SE3       30.08R                  
CLARKSVILLE    CLEAR     60  58  92 CALM      30.08R FOG              
COOKEVILLE     CLEAR     61  59  94 CALM      30.10R                  
CROSSVILLE     CLEAR     60  57  89 CALM      30.14R FOG              
$$

TNZ061-075-076-078-094-096-097-011200-
SOUTH MIDDLE TENNESSEE
  
CITY           SKY/WX    TMP DP  RH WIND       PRES   REMARKS
FAYETTEVILLE   CLEAR     61  59  94 NE9G20    30.08S                  
TULLAHOMA      CLEAR     61  57  88 CALM      30.10S                  
WINCHESTER     CLEAR     61  61 100 CALM      30.10R                  
MCMINNVILLE    MOCLDY    61  61 100 CALM      30.10R                  
COLUMBIA       CLEAR     63  61  94 CALM      30.07R                  
SHELBYVILLE    PTCLDY    61  61 100 E5        30.09S                  
$$

TNZ017-018-042-046-047-011200-
NORTHEAST TENNESSEE
  
CITY           SKY/WX    TMP DP  RH WIND       PRES   REMARKS
TRI CITIES     CLOUDY    65  60  84 CALM      30.13R                  
ELIZABETHTON   CLOUDY    63  61  94 CALM      30.14R                  
$$

TNZ012-013-036-069-073-074-011200-
CENTRAL EAST TENNESSEE
  
CITY           SKY/WX    TMP DP  RH WIND       PRES   REMARKS
KNOXVILLE      MOCLDY    64  63  96 CALM      30.09R                  
OAK RIDGE      PTCLDY    65  63  93 CALM      30.11R                  
GATLINBURG     SUNNY     63  61  94 CALM      30.10R                  
$$

TNZ083-085-099-011200-
SOUTHEAST TENNESSEE
  
CITY           SKY/WX    TMP DP  RH WIND       PRES   REMARKS
CHATTANOOGA    MOCLDY    67  63  87 CALM      30.08R                  
$$

SKY/WX REPORTED AS FAIR MEANS FEW OR NO CLOUDS BELOW
12 THOUSAND FEET.



467 
ASUS44 KMEG 011100
RWRMEG
MEMPHIS CWA HOURLY WEATHER ROUNDUP
NATIONAL WEATHER SERVICE MEMPHIS TN
600 AM CDT FRI AUG 01 2014

...WEST TENNESSEE...
  
CITY           SKY/WX    TMP DP  RH WIND       PRES   REMARKS
MEMPHIS INTL   LGT RAIN  72  66  81 NE3       30.06R                  
NWS MEMPHIS      N/A     70 N/A N/A MISG        N/A                   
JACKSON        CLOUDY    67  65  93 CALM      30.06S                  
LEXINGTON      MOCLDY    64  63  94 NE5       30.06S                  
SAVANNAH       MOCLDY    63  63 100 CALM      30.07R                  
DYERSBURG      MOCLDY    70  57  64 NE5       30.08S                  
UNION CITY     CLOUDY    66  64  94 NE3       30.07R                  
PARIS          MOCLDY    64  61  88 N5        30.08S                  


...EASTERN ARKANSAS...
  
CITY           SKY/WX    TMP DP  RH WIND       PRES   REMARKS
JONESBORO      CLOUDY    69  67  93 CALM      30.07R                  
WEST MEMPHIS   MOCLDY    69  69 100 N3        30.05R                  
BATESVILLE     CLOUDY    66  64  94 CALM      30.07S                  
WALNUT RIDGE   PTCLDY    70  64  83 E6        30.06S                  
BLYTHEVILLE    CLOUDY    69  68  96 NE3       30.07S                  
STUTTGART      CLOUDY    70  64  83 NE8       30.05R                  
PINE BLUFF     CLOUDY    68  64  87 NE3       30.04R                  
MONTICELLO     LGT RAIN  70  67  90 E5        30.03R                  


...NORTH MISSISSIPPI...
  
CITY           SKY/WX    TMP DP  RH WIND       PRES   REMARKS
TUPELO         MOCLDY    69  65  86 NE5       30.03S                  
OLIVE BRANCH   PTCLDY    68  68 100 N3        30.06R                  
CLARKSDALE     CLOUDY    68  68 100 NE3       30.05R                  
GRENADA        PTCLDY    66  64  94 CALM      30.04R                  
GREENWOOD      CLOUDY    69  67  93 CALM      30.03R FOG              
COLUMBUS       MOCLDY    67  66  97 N2        30.03R                  
STARKVILLE     FAIR      64  63  94 CALM      30.03R FOG              
GOLDEN TRIANGL MOCLDY    66  63  88 CALM      30.03R                  


...SOUTHEAST MISSOURI...
  
CITY           SKY/WX    TMP DP  RH WIND       PRES   REMARKS
WEST PLAINS    FOG       58  57  97 CALM      30.11R VSB 1/4          
POPLAR BLUFF   CLOUDY    63  60  90 CALM      30.07S FOG              
CAPE GIRARDEAU MOCLDY    62  61  96 SW3       30.09R FOG              


...NORTHWEST ALABAMA...
  
CITY           SKY/WX    TMP DP  RH WIND       PRES   REMARKS
MUSCLE SHOALS  MOCLDY    65  62  90 CALM      30.07R                  


...MIDDLE TENNESSEE...
  
CITY           SKY/WX    TMP DP  RH WIND       PRES   REMARKS
NASHVILLE      PTCLDY    63  61  93 SE3       30.08R                  
CLARKSVILLE    CLEAR     60  58  92 CALM      30.08R FOG              
COLUMBIA       CLEAR     63  61  94 CALM      30.07R                  


...WESTERN KENTUCKY...
  
CITY           SKY/WX    TMP DP  RH WIND       PRES   REMARKS
PADUCAH        MOCLDY    63  60  90 CALM      30.08R                  
FORT CAMPBELL  CLEAR     59  59 100 N5        30.08R                  


...CENTRAL ARKANSAS...
  
CITY           SKY/WX    TMP DP  RH WIND       PRES   REMARKS
LITTLE ROCK    CLOUDY    69  65  86 N5        30.05R                  


SKY/WX REPORTED AS FAIR MEANS FEW OR NO CLOUDS BELOW
12 THOUSAND FEET.


Return to Home page


Western Regional Climate Center, wrcc@dri.edu